{"data":{"norad_id":27663,"intl_designator":"2003-005A","name":"GPS BIIR-8  (PRN 16)","alt_names":[],"object_type":"PAYLOAD","status":"ACTIVE","operator":null,"country":"US","launch_date":"2003-01-29","launch_site_code":"AFETR","launch_vehicle":null,"mission":null,"orbit_class":"UNKNOWN","rcs_meters":10,"size_class":null,"mass_kg":null,"dimensions":null,"purposes":["earth_obs","nav"],"wikipedia_slug":null,"has_3d_model":false,"image_url":null,"decayed_at":null,"tle_current":{"epoch":"2026-05-25T04:25:41.746944Z","epoch_age_seconds":53137,"freshness":"FRESH","line1":"1 27663U 03005A   26145.18451096 -.00000008  00000+0  00000+0 0  9991","line2":"2 27663  54.8858 215.8828 0147949  53.0208 317.8223  2.00561818170858","mean_motion":2.00561818,"eccentricity":0.0147949,"inclination_deg":54.8858,"raan_deg":215.8828,"arg_perigee_deg":53.0208,"mean_anomaly_deg":317.8223,"bstar":0,"rev_number":17085,"period_min":717.98312079521,"perigee_km":19789.408474203,"apogee_km":20575.328519758,"semimajor_km":26560.505496981,"source":"CELESTRAK","updated_at":"2026-05-25T13:38:23.727011Z"}}}